Change the Weather History Date:

Monday, April 29, 2013

  Actual Average Record
Temperature  
Mean Temperature 74 °F -  
Max Temperature 82 °F 83 °F 95 °F (1948)
Min Temperature 66 °F 63 °F 49 °F (1965)
Cooling Degree Days 9    
Growing Degree Days 24 (Base 50)    
Moisture  
Dew Point 66 °F    
Average Humidity 88    
Maximum Humidity 100    
Minimum Humidity 56    
Precipitation  
Precipitation 0.05 in - - ()
Sea Level Pressure  
Sea Level Pressure 29.90 in    
Wind  
Wind Speed 4 mph (SSE)    
Max Wind Speed 14 mph    
Max Gust Speed -    
Visibility 7 miles    
Events Fog , Rain , Thunderstorm    
Averages and records for this station are not official NWS values.
T = Trace of Precipitation, MM = Missing Value Source: NWS Daily Summary

Daily Weather History Graph

Daily Weather History Graph

Search for Another Location

Airport or City:

Trip Planner

Search our weather history database for the weather conditions in past years. The results will help you decide how hot, cold, wet, or windy it might be!

Date:

Astronomy

Apr. 29, 2013 Rise Set
Actual Time 6:41 AM CDT 7:58 PM CDT
Civil Twilight 6:16 AM CDT 8:23 PM CDT
Nautical Twilight 5:46 AM CDT 8:53 PM CDT
Astronomical Twilight 5:15 AM CDT 9:24 PM CDT
Moon No Moon Rise 10:10 AM CDT (4/29)
Length of Visible Light 14h 06m
Length of Day
13h 16m
Waning Gibbous, 80% of the Moon is Illuminated
Apr 29
Waning Gibbous
May 2
Last Quarter
May 9
New
May 17
First Quarter
May 24
Full

Hourly Weather History & Observations

Time (CDT) Temp. Heat Index Dew Point Humidity Pressure Visibility Wind Dir Wind Speed Gust Speed Precip Events Conditions
12:53 AM 69.1 °F - 66.0 °F 90% 29.95 in 10.0 mi SE 3.5 mph - N/A   Clear
1:53 AM 68.0 °F - 66.0 °F 93% 29.93 in 10.0 mi Calm Calm - N/A   Clear
2:53 AM 66.0 °F - 64.0 °F 93% 29.90 in 8.0 mi ENE 3.5 mph - N/A   Clear
3:53 AM 66.9 °F - 64.9 °F 93% 29.90 in 5.0 mi South 5.8 mph - N/A   Mostly Cloudy
4:35 AM 66.2 °F - 64.4 °F 94% 29.89 in 4.0 mi South 4.6 mph - N/A   Scattered Clouds
4:53 AM 66.0 °F - 64.9 °F 96% 29.89 in 4.0 mi Calm Calm - N/A   Scattered Clouds
5:13 AM 66.2 °F - 64.4 °F 94% 29.89 in 2.5 mi Calm Calm - 0.01 in   Mostly Cloudy
5:45 AM 66.2 °F - 64.4 °F 94% 29.90 in 3.0 mi Calm Calm - 0.01 in   Overcast
5:53 AM 66.9 °F - 66.0 °F 97% 29.90 in 4.0 mi SSE 3.5 mph - 0.01 in   Overcast
6:15 AM 68.0 °F - 66.2 °F 94% 29.89 in 1.8 mi South 4.6 mph - N/A   Overcast
6:30 AM 68.0 °F - 66.2 °F 94% 29.89 in 0.8 mi South 3.5 mph - N/A   Mist
6:46 AM 68.0 °F - 66.2 °F 94% 29.90 in 0.5 mi Calm Calm - N/A Fog Fog
6:53 AM 68.0 °F - 66.9 °F 96% 29.91 in 0.5 mi SSE 3.5 mph - N/A Fog Fog
7:09 AM 66.2 °F - 66.2 °F 100% 29.91 in 0.2 mi SE 3.5 mph - N/A Fog Fog
7:26 AM 66.2 °F - 66.2 °F 100% 29.92 in 0.8 mi SSE 3.5 mph - N/A   Mist
7:34 AM 68.0 °F - 66.2 °F 94% 29.92 in 1.2 mi SSE 3.5 mph - N/A   Overcast
7:50 AM 68.0 °F - 66.2 °F 94% 29.93 in 3.0 mi SE 3.5 mph - N/A   Overcast
7:53 AM 68.0 °F - 66.9 °F 96% 29.93 in 3.0 mi SSE 4.6 mph - N/A   Overcast
8:04 AM 68.0 °F - 66.2 °F 94% 29.93 in 2.5 mi SE 4.6 mph - N/A   Overcast
8:14 AM 68.0 °F - 66.2 °F 94% 29.94 in 4.0 mi South 6.9 mph - N/A   Overcast
8:53 AM 68.0 °F - 66.9 °F 96% 29.95 in 4.0 mi SSE 3.5 mph - N/A   Overcast
9:15 AM 68.0 °F - 66.2 °F 94% 29.94 in 8.0 mi Calm Calm - N/A   Overcast
9:53 AM 70.0 °F - 68.0 °F 93% 29.95 in 10.0 mi SSE 4.6 mph - N/A   Overcast
10:02 AM 69.8 °F - 66.2 °F 88% 29.95 in 10.0 mi SE 4.6 mph - N/A   Overcast
10:53 AM 75.0 °F - 66.9 °F 76% 29.95 in 10.0 mi Calm Calm - N/A   Mostly Cloudy
11:31 AM 77.0 °F - 66.2 °F 69% 29.94 in 10.0 mi NNE 3.5 mph - N/A   Mostly Cloudy
11:53 AM 77.0 °F - 66.0 °F 69% 29.95 in 10.0 mi SE 6.9 mph - N/A   Mostly Cloudy
12:53 PM 79.0 °F - 64.0 °F 60% 29.93 in 10.0 mi ESE 8.1 mph - N/A   Scattered Clouds
1:53 PM 82.0 °F 83.8 °F 64.9 °F 56% 29.90 in 10.0 mi ENE 6.9 mph - N/A   Partly Cloudy
2:53 PM 81.0 °F 82.7 °F 64.9 °F 58% 29.87 in 10.0 mi Variable 6.9 mph - N/A   Scattered Clouds
3:53 PM 80.1 °F 81.7 °F 64.0 °F 58% 29.85 in 10.0 mi ESE 10.4 mph - N/A   Partly Cloudy
4:53 PM 75.0 °F - 64.9 °F 71% 29.85 in 10.0 mi SSE 13.8 mph - N/A Thunderstorm Thunderstorm
5:26 PM 73.4 °F - 68.0 °F 83% 29.86 in 10.0 mi South 9.2 mph - 0.00 in Rain Light Rain
5:53 PM 72.0 °F - 68.0 °F 87% 29.87 in 10.0 mi South 9.2 mph - 0.00 in Rain Light Rain
6:53 PM 72.0 °F - 68.0 °F 87% 29.86 in 9.0 mi South 8.1 mph - 0.01 in Rain Light Rain
7:53 PM 70.0 °F - 68.0 °F 93% 29.85 in 10.0 mi SSE 4.6 mph - 0.03 in   Mostly Cloudy
8:53 PM 71.1 °F - 68.0 °F 90% 29.85 in 10.0 mi SSE 8.1 mph - N/A   Clear
9:53 PM 71.1 °F - 69.1 °F 93% 29.86 in 9.0 mi SE 8.1 mph - N/A   Clear
10:53 PM 71.1 °F - 68.0 °F 90% 29.87 in 9.0 mi SE 9.2 mph - N/A   Scattered Clouds
11:11 PM 71.6 °F - 69.8 °F 94% 29.86 in 9.0 mi SE 6.9 mph - N/A   Overcast
11:21 PM 71.6 °F - 68.0 °F 88% 29.86 in 9.0 mi SSE 8.1 mph - N/A   Overcast
11:53 PM 71.1 °F - 68.0 °F 90% 29.86 in 10.0 mi SE 6.9 mph - N/A   Mostly Cloudy